Home   Weather   Lexington   Past weeks

Flag for USA Past Weather in Lexington, Virginia, USA — Yesterday and Last 2 Weeks

72 °F


Feels Like: 76 °F
Forecast: 61 / 83 °F
Wind: 9 mph from Southeast

Location: Hot Springs / Ingalls

Current Time: Oct 20, 2016 at 5:28:20 PM

Latest Report: Oct 20, 2016 at 4:18 PM

Visibility: 10 mi

Pressure: 30.06 "Hg

Humidity: 57%

Dew Point: 55 °F

Location of LexingtonLocation

Past Weather in Lexington — Graph


Lexington Temperature Yesterday

Maximum temperature yesterday: 75 °F (at 2:56 PM)
Minimum temperature yesterday: 63 °F (at 2:36 AM)
Average temperature yesterday: 69 °F

High & Low Weather Summary for the Past Weeks

High75 °F (Oct 19, 2:56 PM)100% (Oct 5, 10:15 PM)30.44 "Hg (Oct 5, 10:15 PM)
Low37 °F (Oct 10, 6:56 AM)36% (Oct 12, 10:56 AM)30.02 "Hg (Oct 9, 12:56 AM)
Average56 °F80%30.23 "Hg
* Reported Oct 5 3:36 PM — Oct 20 3:55 PM, Lexington, Weather by CustomWeather, © 2016

Note: Actual official high and low records may vary slightly from our data, if they occured in-between our weather recording intervals... More about our weather records


Lexington Weather History for the Previous 24 Hours

Scroll right to see more
Time TempWeatherWind HumidityBarometerVisibility
3:55 PM
Thu, Oct 20
72 °FSunny.7 mph57%30.06 "Hg10 mi
3:18 PM72 °FSunny.9 mph69%30.07 "Hg1 mi
2:18 PM72 °FSunny.9 mph57%30.08 "Hg10 mi
1:55 PM72 °FSunny.9 mph57%30.09 "Hg10 mi
12:55 PM72 °FSunny.7 mph57%30.12 "Hg10 mi
11:40 AM72 °FSunny.7 mph61%30.14 "Hg10 mi
11:18 AM72 °FSunny.7 mph61%30.14 "Hg10 mi
10:55 AM72 °FSunny.6 mph57%30.14 "Hg10 mi
10:20 AM73 °FSunny.10 mph44%30.16 "Hg10 mi
9:39 AM70 °FSunny.8 mph57%30.17 "Hg10 mi
8:56 AM64 °FSunny.9 mph73%30.17 "Hg10 mi
8:16 AM63 °FSunny.10 mph77%30.17 "Hg10 mi
7:56 AM63 °FSunny.8 mph64%30.17 "Hg10 mi
7:16 AM68 °FClear.9 mph49%30.17 "Hg10 mi
6:56 AM64 °FClear.9 mph64%30.17 "Hg10 mi
6:16 AM68 °FClear.12 mph53%30.17 "Hg10 mi
5:56 AM66 °FPassing clouds.12 mph64%30.17 "Hg10 mi
5:36 AM64 °FPassing clouds.10 mph73%30.17 "Hg10 mi
4:56 AM66 °FClear.9 mph68%30.16 "Hg10 mi
4:36 AM66 °FClear.10 mph68%30.16 "Hg10 mi
4:16 AM66 °FPassing clouds.12 mph68%30.16 "Hg10 mi
3:35 AM64 °FClear.7 mph78%30.17 "Hg10 mi
3:15 AM64 °FClear.6 mph78%30.17 "Hg10 mi
2:55 AM64 °FClear.6 mph88%30.17 "Hg10 mi
2:15 AM64 °FClear.7 mph88%30.17 "Hg10 mi
1:55 AM64 °FClear.7 mph88%30.17 "Hg10 mi
12:55 AM64 °FClear.5 mph88%30.18 "Hg10 mi
12:15 AM66 °FPassing clouds.6 mph83%30.19 "Hg10 mi
11:55 PM
Wed, Oct 19
66 °FPassing clouds.5 mph83%30.20 "Hg10 mi
11:35 PM66 °FClear.5 mph83%30.20 "Hg10 mi
11:15 PM64 °FClear.3 mph88%30.21 "Hg10 mi
10:55 PM66 °FClear.3 mph78%30.21 "Hg10 mi
10:35 PM66 °FPassing clouds.No wind78%30.21 "Hg10 mi
10:15 PM68 °FOvercast.No wind73%30.21 "Hg10 mi
9:55 PM70 °FMostly cloudy.5 mph73%30.22 "Hg10 mi
9:35 PM70 °FPassing clouds.No wind73%30.21 "Hg10 mi
9:15 PM68 °FPassing clouds.3 mph78%30.21 "Hg10 mi
8:55 PM70 °FClear.3 mph69%30.21 "Hg10 mi
8:15 PM70 °FClear.3 mph69%30.19 "Hg10 mi
7:55 PM68 °FClear.3 mph78%30.19 "Hg10 mi
7:35 PM70 °FClear.No wind73%30.19 "Hg10 mi
7:15 PM70 °FClear.No wind73%30.19 "Hg10 mi
6:55 PM70 °FPassing clouds.No wind69%30.18 "Hg10 mi
6:15 PM72 °FMostly cloudy.No wind69%30.18 "Hg10 mi
5:55 PM72 °FScattered clouds.No wind69%30.18 "Hg10 mi
5:15 PM73 °FScattered clouds.5 mph65%30.18 "Hg10 mi
Weather by CustomWeather, © 2016

See weather overviewHow to use our weather pages